Hot Springs, VA

7:56 AM EST on December 17, 2017 (GMT -0500)
Ingalls

Weather History for KHSP - April, 2014

Change the Weather History Date:

Saturday, April 5, 2014

  Actual Average Record
Temperature  
Mean Temperature 40 °F -  
Max Temperature 48 °F 52 °F 66 °F (2005)
Min Temperature 32 °F 35 °F 19 °F (2004)
Degree Days  
Heating Degree Days 25    
Moisture  
Dew Point 28 °F    
Average Humidity 69    
Maximum Humidity 93    
Minimum Humidity 49    
Precipitation  
Precipitation 0.00 in - - ()
Sea Level Pressure  
Sea Level Pressure 29.99 in    
Wind  
Wind Speed 19 mph (WNW)    
Max Wind Speed 30 mph    
Max Gust Speed 41 mph    
Visibility 10 miles    
Events      
Averages and records for this station are not official NWS values.
T = Trace of Precipitation, MM = Missing Value Source: NWS Daily Summary

Daily Weather History Graph

Daily Weather History Graph

Search for Another Location

Airport or City:

Trip Planner

Search our weather history database for the weather conditions in past years. The results will help you decide how hot, cold, wet, or windy it might be!

Date:

Astronomy

Apr. 05, 2014 Rise Set
Actual Time 6:58 AM EDT 7:46 PM EDT
Civil Twilight 6:31 AM EDT 8:12 PM EDT
Nautical Twilight 6:00 AM EDT 8:44 PM EDT
Astronomical Twilight 5:27 AM EDT 9:16 PM EDT
Moon 11:08 AM EDT (4/5) 12:51 AM EDT (4/5)
Length of Visible Light 13h 40m
Length of Day
12h 47m
Waxing Crescent, 34% of the Moon is Illuminated
Apr 5
Waxing Crescent
Apr 7
First Quarter
Apr 15
Full
Apr 22
Last Quarter
Apr 29
New

Hourly Weather History & Observations

Time (EDT) Temp. Windchill Dew Point Humidity Pressure Visibility Wind Dir Wind Speed Gust Speed Precip Events Conditions
12:10 AM 48.2 °F - 46.4 °F 93% 29.86 in 10.0 mi West 17.3 mph 27.6 mph N/A   Overcast
12:35 AM 48.2 °F - 42.8 °F 82% 29.87 in 10.0 mi West 21.9 mph 31.1 mph N/A   Overcast
12:55 AM 48.2 °F - 41.0 °F 76% 29.86 in 10.0 mi West 29.9 mph 39.1 mph N/A   Mostly Cloudy
1:15 AM 46.4 °F 38.3 °F 39.2 °F 76% 29.87 in 10.0 mi West 23.0 mph 35.7 mph N/A   Mostly Cloudy
1:35 AM 46.4 °F 37.4 °F 39.2 °F 76% 29.85 in 10.0 mi West 28.8 mph 35.7 mph N/A   Mostly Cloudy
1:55 AM 44.6 °F 35.7 °F 37.4 °F 76% 29.86 in 10.0 mi West 24.2 mph 32.2 mph N/A   Mostly Cloudy
2:10 AM 42.8 °F 33.3 °F 35.6 °F 76% 29.86 in 10.0 mi West 24.2 mph 31.1 mph N/A   Scattered Clouds
2:35 AM 42.8 °F 32.9 °F 35.6 °F 76% 29.85 in 10.0 mi West 26.5 mph 39.1 mph N/A   Scattered Clouds
2:55 AM 41.0 °F 30.7 °F 33.8 °F 76% 29.85 in 10.0 mi West 25.3 mph 34.5 mph N/A   Scattered Clouds
3:15 AM 39.2 °F 27.6 °F 33.8 °F 81% 29.85 in 10.0 mi West 28.8 mph 40.3 mph N/A   Scattered Clouds
3:35 AM 39.2 °F 27.8 °F 32.0 °F 75% 29.86 in 10.0 mi West 27.6 mph 39.1 mph N/A   Scattered Clouds
3:55 AM 37.4 °F 26.4 °F 32.0 °F 81% 29.86 in 10.0 mi West 23.0 mph 35.7 mph N/A   Mostly Cloudy
4:15 AM 37.4 °F 26.6 °F 32.0 °F 81% 29.86 in 10.0 mi West 21.9 mph 32.2 mph N/A   Overcast
4:35 AM 35.6 °F 24.5 °F 30.2 °F 81% 29.87 in 10.0 mi West 20.7 mph 33.4 mph N/A   Overcast
4:55 AM 35.6 °F 23.4 °F 30.2 °F 81% 29.87 in 10.0 mi West 25.3 mph 41.4 mph N/A   Overcast
5:15 AM 35.6 °F 24.0 °F 28.4 °F 75% 29.87 in 10.0 mi West 23.0 mph 34.5 mph N/A   Overcast
5:30 AM 35.6 °F 24.2 °F 28.4 °F 75% 29.88 in 10.0 mi West 21.9 mph 31.1 mph N/A   Overcast
5:55 AM 33.8 °F 22.5 °F 28.4 °F 81% 29.89 in 10.0 mi WNW 19.6 mph 26.5 mph N/A   Overcast
6:15 AM 33.8 °F 21.9 °F 26.6 °F 75% 29.90 in 10.0 mi WNW 21.9 mph 34.5 mph N/A   Overcast
6:35 AM 33.8 °F 20.8 °F 26.6 °F 75% 29.91 in 10.0 mi WNW 26.5 mph 35.7 mph N/A   Mostly Cloudy
6:55 AM 33.8 °F 21.3 °F 26.6 °F 75% 29.92 in 10.0 mi WNW 24.2 mph 29.9 mph N/A   Overcast
7:15 AM 33.8 °F 21.6 °F 26.6 °F 75% 29.92 in 10.0 mi West 23.0 mph 36.8 mph N/A   Overcast
7:35 AM 32.0 °F 18.6 °F 26.6 °F 80% 29.93 in 10.0 mi WNW 25.3 mph 33.4 mph N/A   Overcast
7:55 AM 32.0 °F 20.1 °F 26.6 °F 80% 29.94 in 10.0 mi WNW 19.6 mph 29.9 mph N/A   Overcast
8:10 AM 32.0 °F 19.8 °F 26.6 °F 80% 29.94 in 10.0 mi West 20.7 mph 32.2 mph N/A   Overcast
8:35 AM 32.0 °F 20.1 °F 26.6 °F 80% 29.95 in 10.0 mi WNW 19.6 mph 27.6 mph N/A   Overcast
8:55 AM 32.0 °F 20.8 °F 26.6 °F 80% 29.96 in 10.0 mi West 17.3 mph 27.6 mph N/A   Overcast
9:15 AM 33.8 °F 23.2 °F 26.6 °F 75% 29.96 in 10.0 mi West 17.3 mph 25.3 mph N/A   Overcast
9:35 AM 33.8 °F 24.3 °F 26.6 °F 75% 29.97 in 10.0 mi West 13.8 mph 21.9 mph N/A   Overcast
9:55 AM 33.8 °F 24.8 °F 26.6 °F 75% 29.98 in 10.0 mi West 12.7 mph 24.2 mph N/A   Overcast
10:10 AM 33.8 °F 25.3 °F 26.6 °F 75% 29.99 in 10.0 mi West 11.5 mph 19.6 mph N/A   Overcast
10:35 AM 33.8 °F 24.3 °F 28.4 °F 81% 30.00 in 10.0 mi West 13.8 mph 19.6 mph N/A   Overcast
10:55 AM 33.8 °F 23.9 °F 28.4 °F 81% 30.01 in 10.0 mi WNW 15.0 mph 21.9 mph N/A   Unknown
11:15 AM 35.6 °F 25.5 °F 28.4 °F 75% 30.01 in 10.0 mi West 17.3 mph 24.2 mph N/A   Overcast
11:30 AM 35.6 °F 25.9 °F 28.4 °F 75% 30.01 in 10.0 mi WNW 16.1 mph 25.3 mph N/A   Mostly Cloudy
11:55 AM 37.4 °F 27.5 °F 28.4 °F 70% 30.02 in 10.0 mi WNW 18.4 mph 24.2 mph N/A   Mostly Cloudy
12:20 PM 37.4 °F 27.5 °F 28.4 °F 70% 30.02 in 10.0 mi West 18.4 mph 23.0 mph N/A   Mostly Cloudy
12:35 PM 37.4 °F 28.2 °F 28.4 °F 70% 30.02 in 10.0 mi West 16.1 mph 26.5 mph N/A   Scattered Clouds
12:55 PM 39.2 °F 30.2 °F 28.4 °F 65% 30.02 in 10.0 mi West 17.3 mph 20.7 mph N/A   Scattered Clouds
1:15 PM 39.2 °F 31.6 °F 28.4 °F 65% 30.03 in 10.0 mi West 12.7 mph 19.6 mph N/A   Scattered Clouds
1:35 PM 39.2 °F 31.6 °F 28.4 °F 65% 30.03 in 10.0 mi WNW 12.7 mph 21.9 mph N/A   Scattered Clouds
1:55 PM 41.0 °F 33.9 °F 28.4 °F 61% 30.03 in 10.0 mi West 12.7 mph 19.6 mph N/A   Scattered Clouds
2:15 PM 41.0 °F 33.9 °F 28.4 °F 61% 30.04 in 10.0 mi WNW 12.7 mph 21.9 mph N/A   Scattered Clouds
2:35 PM 42.8 °F 35.4 °F 28.4 °F 57% 30.04 in 10.0 mi West 15.0 mph 21.9 mph N/A   Scattered Clouds
2:55 PM 42.8 °F 35.4 °F 28.4 °F 57% 30.04 in 10.0 mi West 15.0 mph 18.4 mph N/A   Clear
3:15 PM 42.8 °F 34.8 °F 26.6 °F 53% 30.04 in 10.0 mi West 17.3 mph 23.0 mph N/A   Clear
3:35 PM 42.8 °F 35.4 °F 26.6 °F 53% 30.04 in 10.0 mi West 15.0 mph 19.6 mph N/A   Clear
3:55 PM 42.8 °F 36.2 °F 26.6 °F 53% 30.04 in 10.0 mi West 12.7 mph 16.1 mph N/A   Clear
4:35 PM 42.8 °F 36.6 °F 26.6 °F 53% 30.05 in 10.0 mi West 11.5 mph - N/A   Clear
4:55 PM 42.8 °F 35.8 °F 26.6 °F 53% 30.05 in 10.0 mi West 13.8 mph 17.3 mph N/A   Clear
5:15 PM 44.6 °F 39.7 °F 26.6 °F 49% 30.06 in 10.0 mi NW 9.2 mph 18.4 mph N/A   Clear
5:35 PM 42.8 °F 37.5 °F 26.6 °F 53% 30.06 in 10.0 mi West 9.2 mph - N/A   Clear
5:55 PM 44.6 °F 39.2 °F 26.6 °F 49% 30.07 in 10.0 mi WNW 10.4 mph - N/A   Clear
6:15 PM 44.6 °F 40.7 °F 26.6 °F 49% 30.08 in 10.0 mi WNW 6.9 mph - N/A   Clear
6:30 PM 42.8 °F 40.1 °F 26.6 °F 53% 30.08 in 10.0 mi WNW 4.6 mph - N/A   Clear
6:55 PM 42.8 °F 37.0 °F 24.8 °F 49% 30.09 in 10.0 mi NNW 10.4 mph 17.3 mph N/A   Clear
7:20 PM 39.2 °F 33.0 °F 23.0 °F 52% 30.09 in 10.0 mi NW 9.2 mph 16.1 mph N/A   Clear
7:30 PM 39.2 °F 33.6 °F 23.0 °F 52% 30.09 in 10.0 mi NNW 8.1 mph - N/A   Clear
7:55 PM 37.4 °F 31.4 °F 23.0 °F 56% 30.10 in 10.0 mi NNW 8.1 mph - N/A   Unknown
8:10 PM 37.4 °F 29.3 °F 23.0 °F 56% 30.10 in 10.0 mi NW 12.7 mph - N/A   Clear
8:35 PM 37.4 °F 28.5 °F 23.0 °F 56% 30.11 in 10.0 mi NW 15.0 mph 18.4 mph N/A   Clear
8:36 PM 37.4 °F 28.9 °F 23.0 °F 56% 30.11 in 10.0 mi NW 13.8 mph 18.4 mph N/A   Clear
8:55 PM 37.4 °F 30.3 °F 24.8 °F 60% 30.12 in 10.0 mi WNW 10.4 mph 18.4 mph N/A   Clear
9:35 PM 35.6 °F 28.6 °F 24.8 °F 65% 30.13 in 10.0 mi NW 9.2 mph - N/A   Clear
9:55 PM 35.6 °F 27.5 °F 24.8 °F 65% 30.14 in 10.0 mi NW 11.5 mph - N/A   Clear
10:15 PM 35.6 °F 28.0 °F 24.8 °F 65% 30.14 in 10.0 mi NW 10.4 mph - N/A   Clear
10:35 PM 33.8 °F 27.7 °F 24.8 °F 70% 30.14 in 10.0 mi NW 6.9 mph 16.1 mph N/A   Clear
11:16 PM 33.8 °F 25.3 °F 24.8 °F 70% 30.14 in 10.0 mi NNW 11.5 mph - N/A   Clear
11:20 PM 33.8 °F 27.0 °F 24.8 °F 70% 30.14 in 10.0 mi NW 8.1 mph - N/A   Clear
11:35 PM 33.8 °F 27.7 °F 24.8 °F 70% 30.14 in 10.0 mi NNW 6.9 mph - N/A   Clear
11:55 PM 32.0 °F 23.6 °F 24.8 °F 75% 30.15 in 10.0 mi NW 10.4 mph - N/A   Clear